Карточка аэропорта UWSG

Внимание!
Информация на этой странице в стадии наполнения.
Если вы не увидели какой-то информации, или заметили неточность - пожалуйста сообщите нам!
Спасибо!
Команда RU-STAFF
Название аэропортаГагарин
Название аэропорта (англ.)Gagarin
Превышение31 ft. (9.4 m.)
Координаты51°42.6', 46°10.8'
Высота перехода3000ft
Эшелон переходаQNH>=760mmHg:FL040, 733mmHg<=QNH<760mmHg:FL050,QNH<732mmHg:FL060
Коды ответчикаNo info
Зона ОрВДСамара РПИ (UWWW)
Данные METARUWSG 240900Z 08005MPS 030V110 9999 BKN036 23/14 Q1005 R08/CLRD70 NOSIG RMK QFE751/1002
Проноз погоды (TAF)UWSG 240753Z 2409/2418 02005G10MPS 9999 BKN030 TX24/2412Z TN20/2418Z TEMPO 2409/2412 -SHRA BKN020CB
NOTAMshow/hide NOTAM
AWOS   TABLE

Информация о ВПП

ВПП Длина ВПП (м.) Покрытие Курс ВПП Частота ILS
083000Бетон81108.55
263000Бетон261108.75

Диспетчерские позиции

Позывной Наименование органа УВД Частота
UWSG_APPГагарин-Подход130.300
UWSG_TWRГагарин-Старт122.850



Спутниковое изображение